[[{"header":{"parameterUnit":"m.s-1","parameterCategory":1,"la1":30.2991,"la2":30.254,"lo1":-89.0895,"lo2":-89.0444,"dy":0.0017,"dx":0.0017,"nx":28,"ny":28,"refTime":"2025-04-26T03:00:00:Z","depth":0,"parameterNumber":2,"parameterNumberName":"U-component_of_WINDS"},"data":[0,0,0,0,0,0,0,0,0,0,0,0,0,0,0,0,0,0,0,0,0,0,0,0,0,0,0,0,0,0,0,0,0,0,0,0,0,0,0,0,0,0,0,0,0,0,0,0,0,0,0,0,0,0,0,0,0,0,-0.1592,-0.1591,0,-0.155,-0.1549,-0.1549,-0.1525,-0.1525,-0.1525,-0.1525,-0.148,-0.1479,-0.1478,0,0,0,0,0,0,0,0,0,0,0,0,0,-0.1649,-0.1649,-0.1592,-0.1591,-0.1591,-0.155,-0.1549,-0.1549,-0.1525,-0.1525,-0.1525,-0.1525,-0.148,-0.1479,-0.1478,0,0,0,0,0,0,0,0,0,0,0,0,0,-0.1618,-0.1648,-0.1592,-0.1574,-0.1572,-0.155,-0.1549,-0.1549,-0.1525,-0.1525,-0.1525,-0.1525,-0.1481,-0.1479,-0.1477,-0.1469,0,0,-0.1472,-0.1472,0,0,0,0,0,0,0,0,-0.162,-0.1616,-0.1577,-0.1575,-0.1573,-0.1543,-0.1553,-0.1522,-0.1525,-0.1543,-0.1525,-0.1525,-0.1501,-0.1497,-0.149,-0.1467,-0.1465,-0.1472,-0.1471,-0.147,-0.147,0,0,0,0,0,0,0,-0.1622,-0.1617,-0.1575,-0.1577,-0.1574,-0.1568,-0.1563,-0.1547,-0.1523,-0.1541,-0.154,-0.1535,-0.15,-0.1491,-0.1489,-0.1465,-0.1472,-0.1471,-0.147,-0.1469,-0.1434,-0.1435,0,0,0,0,0,0,-0.1627,-0.1619,-0.1576,-0.1574,-0.1596,-0.1567,-0.1562,-0.1552,-0.1523,-0.1518,-0.1535,-0.1534,-0.1494,-0.1491,-0.1487,-0.1476,-0.147,-0.1469,-0.1468,-0.1434,-0.1434,-0.1435,0,0,0,0,0,0,-0.1628,-0.1623,-0.1578,-0.1596,-0.159,-0.1566,-0.1556,-0.1552,-0.1544,-0.1518,-0.1514,-0.1532,-0.1494,-0.1489,-0.1474,-0.1474,-0.1468,-0.1467,-0.1434,-0.1434,-0.1434,-0.1454,0,0,0,0,0,0,-0.163,-0.1624,-0.1621,-0.1596,-0.1589,-0.1567,-0.1556,-0.1551,-0.1541,-0.1539,-0.1514,-0.1509,-0.1494,-0.1477,-0.1473,-0.1472,-0.1465,-0.1434,-0.1434,-0.1434,-0.1454,-0.1455,-0.1457,0,0,0,0,0,-0.1632,-0.1627,-0.1621,-0.1616,-0.1585,-0.1567,-0.1563,-0.1545,-0.1541,-0.1538,-0.1522,-0.151,-0.1475,-0.1476,-0.1471,-0.1469,-0.1434,-0.1434,-0.1434,-0.1453,-0.1455,-0.1456,0,0,0,0,0,0,-0.1652,-0.1624,-0.1616,-0.1603,-0.1588,-0.1563,-0.1558,-0.1548,-0.1532,-0.1531,-0.151,-0.1504,-0.1491,-0.1479,-0.148,-0.146,-0.1453,-0.1452,-0.1469,-0.1471,-0.1472,-0.1475,-0.1464,0,0,0,0,0,-0.1655,-0.1643,-0.1619,-0.161,-0.1603,-0.1582,-0.1573,-0.1562,-0.1544,-0.1537,-0.152,-0.1503,-0.1488,-0.1479,-0.1463,-0.1452,-0.1446,-0.1448,-0.145,-0.1451,-0.1451,-0.1444,-0.1445,-0.1435,-0.1435,-0.1435,0,0,-0.166,-0.1644,-0.1637,-0.1614,-0.16,-0.1588,-0.1576,-0.1564,-0.1555,-0.1535,-0.152,-0.1507,-0.1487,-0.1474,-0.1467,-0.1463,-0.1452,-0.1451,-0.1453,-0.1451,-0.1445,-0.1446,-0.1446,-0.1435,-0.1435,-0.1435,0,0,-0.1665,-0.1651,-0.1642,-0.1629,-0.161,-0.1596,-0.1594,-0.1571,-0.1562,-0.1547,-0.1532,-0.1521,-0.1495,-0.1482,-0.1472,-0.1472,-0.1461,-0.1468,-0.1475,-0.1469,-0.147,-0.1471,-0.1472,-0.1472,-0.1468,-0.1468,-0.1468,0,-0.1674,-0.1656,-0.1639,-0.1628,-0.1618,-0.1601,-0.1592,-0.158,-0.1556,-0.1549,-0.1545,-0.1514,-0.1499,-0.1483,-0.1483,-0.1475,-0.1473,-0.1471,-0.1472,-0.1472,-0.1472,-0.1473,-0.1473,-0.1469,-0.1468,-0.1468,-0.1468,0,-0.1669,-0.1657,-0.1652,-0.1631,-0.162,-0.161,-0.1592,-0.1583,-0.1573,-0.1559,-0.1545,-0.1526,-0.1508,-0.1503,-0.1492,-0.1486,-0.1484,-0.1476,-0.1468,-0.1475,-0.1475,-0.1475,-0.147,-0.147,-0.1469,-0.1469,0,0,-0.1683,-0.1654,-0.1652,-0.1643,-0.162,-0.161,-0.16,-0.1583,-0.1576,-0.156,-0.1551,-0.1531,-0.1524,-0.1512,-0.15,-0.1495,-0.1497,-0.1487,-0.1487,-0.149,-0.149,-0.1496,-0.1496,-0.149,-0.149,-0.149,-0.1492,0,-0.1684,-0.1666,-0.1651,-0.1637,-0.1626,-0.161,-0.1601,-0.1586,-0.1574,-0.1562,-0.1548,-0.1535,-0.1526,-0.152,-0.1514,-0.1498,-0.1497,-0.1498,-0.1481,-0.148,-0.1487,-0.1496,-0.1502,-0.1505,-0.1491,-0.1491,-0.1491,0,-0.1683,-0.1669,-0.1655,-0.1635,-0.163,-0.1622,-0.1606,-0.1595,-0.1578,-0.157,-0.1558,-0.1545,-0.1533,-0.1527,-0.1511,-0.1512,-0.1504,-0.1495,-0.1495,-0.1493,-0.1486,-0.1495,-0.1505,-0.1506,-0.1491,-0.1491,-0.1491,0,-0.1695,-0.1673,-0.1663,-0.1655,-0.1631,-0.1626,-0.1616,-0.1599,-0.159,-0.1575,-0.1569,-0.1553,-0.1545,-0.1532,-0.1516,-0.1513,-0.1501,-0.1493,-0.1493,-0.1494,-0.1491,-0.1492,-0.1501,-0.1486,-0.1486,-0.1486,-0.1486,0,-0.1698,-0.169,-0.1668,-0.1661,-0.1652,-0.1635,-0.1627,-0.1615,-0.16,-0.1591,-0.1575,-0.1567,-0.1545,-0.1534,-0.1521,-0.1509,-0.1505,-0.1498,-0.1495,-0.1499,-0.15,-0.1494,-0.1493,-0.1486,-0.1486,-0.1486,-0.1486,0,-0.171,-0.1695,-0.1682,-0.1662,-0.1656,-0.1651,-0.1632,-0.1625,-0.1613,-0.1601,-0.1597,-0.1577,-0.1563,-0.1546,-0.1525,-0.1517,-0.1507,-0.1501,-0.1513,-0.1511,-0.1512,-0.1513,-0.1518,-0.1518,-0.1503,-0.1503,-0.1503,0,-0.1713,-0.1707,-0.1686,-0.168,-0.167,-0.1659,-0.1651,-0.1634,-0.1625,-0.1606,-0.1601,-0.1587,-0.1574,-0.1552,-0.1535,-0.152,-0.1515,-0.1518,-0.1512,-0.1518,-0.1515,-0.1516,-0.1515,-0.1519,-0.1519,-0.1519,-0.152,0,-0.172,-0.1713,-0.1702,-0.1688,-0.1679,-0.1667,-0.1654,-0.1649,-0.163,-0.1621,-0.1607,-0.1598,-0.1578,-0.1564,-0.1547,-0.1535,-0.1524,-0.1522,-0.1521,-0.1526,-0.1533,-0.153,-0.1517,-0.1521,-0.1521,-0.1521,-0.1521,-0.1521,-0.1728,-0.1722,-0.1707,-0.1695,-0.1684,-0.1673,-0.1666,-0.1653,-0.1642,-0.1626,-0.1616,-0.1603,-0.1587,-0.1563,-0.1553,-0.1542,-0.1537,-0.1536,-0.1536,-0.1536,-0.1538,-0.1535,-0.1538,-0.1538,-0.1538,-0.1538,-0.1538,0,-0.1734,-0.1724,-0.1714,-0.1697,-0.1688,-0.168,-0.1666,-0.1658,-0.1647,-0.1634,-0.1622,-0.1607,-0.1593,-0.1576,-0.1561,-0.1556,-0.155,-0.1553,-0.1553,-0.155,-0.1542,-0.1545,-0.1557,-0.1557,-0.1557,-0.1557,-0.1557,-0.1557,-0.1737,-0.1727,-0.1719,-0.1704,-0.1693,-0.1681,-0.1674,-0.1664,-0.1653,-0.1637,-0.1626,-0.1616,-0.1601,-0.1585,-0.1572,-0.1567,-0.1563,-0.1566,-0.156,-0.1553,-0.1551,-0.1549,-0.1551,-0.1565,-0.1565,-0.1569,-0.1569,-0.1569]},{"header":{"parameterUnit":"m.s-1","parameterCategory":1,"la1":30.2991,"la2":30.254,"lo1":-89.0895,"lo2":-89.0444,"dy":0.0017,"dx":0.0017,"nx":28,"ny":28,"refTime":"2025-04-26T03:00:00:Z","depth":0,"parameterNumber":3,"parameterNumberName":"V-component_of_WINDS"},"data":[0,0,0,0,0,0,0,0,0,0,0,0,0,0,0,0,0,0,0,0,0,0,0,0,0,0,0,0,0,0,0,0,0,0,0,0,0,0,0,0,0,0,0,0,0,0,0,0,0,0,0,0,0,0,0,0,0,0,0.6741,0.6742,0,0.6751,0.6751,0.6751,0.6736,0.6736,0.6735,0.6735,0.6745,0.6745,0.6746,0,0,0,0,0,0,0,0,0,0,0,0,0,0.6708,0.6709,0.6741,0.6742,0.6742,0.6751,0.6751,0.6752,0.6736,0.6736,0.6735,0.6735,0.6744,0.6745,0.6746,0,0,0,0,0,0,0,0,0,0,0,0,0,0.6721,0.6709,0.6741,0.6735,0.6735,0.6751,0.6751,0.6752,0.6737,0.6736,0.6735,0.6734,0.6744,0.6745,0.6746,0.6769,0,0,0.675,0.675,0,0,0,0,0,0,0,0,0.672,0.6722,0.6736,0.6736,0.6735,0.6742,0.6743,0.6757,0.6737,0.6736,0.6735,0.6734,0.6744,0.6745,0.6749,0.6769,0.677,0.675,0.675,0.6751,0.6751,0,0,0,0,0,0,0,0.6719,0.6721,0.6745,0.6736,0.6736,0.6732,0.6732,0.6746,0.6744,0.6736,0.6735,0.6736,0.6744,0.6748,0.6749,0.677,0.675,0.6751,0.6751,0.6752,0.6807,0.6808,0,0,0,0,0,0,0.6719,0.6721,0.6745,0.6746,0.6725,0.6733,0.6734,0.6741,0.6744,0.6744,0.6737,0.6736,0.6746,0.6748,0.6749,0.6775,0.6751,0.6752,0.6753,0.6807,0.6808,0.6809,0,0,0,0,0,0,0.6718,0.6721,0.6745,0.6733,0.6735,0.6734,0.6742,0.6741,0.6745,0.6745,0.6745,0.6741,0.6746,0.6748,0.6764,0.6775,0.6752,0.6753,0.6806,0.6807,0.6808,0.6827,0,0,0,0,0,0,0.6717,0.6721,0.673,0.6733,0.6736,0.676,0.6743,0.6742,0.6747,0.6745,0.6749,0.6749,0.6745,0.6762,0.6765,0.6776,0.6754,0.6805,0.6806,0.6808,0.6826,0.6829,0.6832,0,0,0,0,0,0.6716,0.6736,0.6731,0.6734,0.6748,0.676,0.6762,0.6758,0.6748,0.6757,0.6756,0.6749,0.6773,0.6764,0.6767,0.6779,0.6804,0.6806,0.6808,0.6824,0.6828,0.6832,0,0,0,0,0,0,0.6735,0.6736,0.6731,0.6752,0.6756,0.6758,0.6769,0.6762,0.6769,0.6767,0.6761,0.6762,0.6779,0.6781,0.677,0.68,0.6787,0.6789,0.6799,0.6803,0.6806,0.6805,0.6755,0,0,0,0,0,0.6741,0.6752,0.6752,0.677,0.6773,0.677,0.6776,0.6772,0.6776,0.6778,0.6779,0.6783,0.6791,0.6797,0.6805,0.6826,0.6826,0.6835,0.6838,0.6841,0.6843,0.6853,0.6857,0.6814,0.6814,0.6814,0,0,0.6755,0.6757,0.6764,0.6774,0.6777,0.6787,0.6772,0.6784,0.6791,0.6779,0.6795,0.6795,0.6799,0.6817,0.6825,0.6819,0.6854,0.6843,0.6845,0.6846,0.6855,0.6859,0.6863,0.6816,0.6815,0.6815,0,0,0.6785,0.6788,0.6803,0.6805,0.6809,0.6807,0.6811,0.6813,0.6813,0.6828,0.6819,0.6827,0.6842,0.6845,0.6848,0.6877,0.687,0.688,0.6896,0.6906,0.6909,0.6912,0.6922,0.6925,0.6882,0.6882,0.6882,0,0.6801,0.6817,0.6811,0.6823,0.6827,0.6817,0.6831,0.6834,0.6841,0.6843,0.6836,0.6854,0.6856,0.6874,0.688,0.6884,0.6887,0.688,0.6909,0.6912,0.6915,0.6924,0.6927,0.6883,0.6883,0.6883,0.6883,0,0.6836,0.6847,0.6858,0.6864,0.687,0.6883,0.6879,0.6885,0.688,0.6878,0.6893,0.6895,0.6902,0.6906,0.6902,0.6923,0.6919,0.691,0.6897,0.692,0.6928,0.6932,0.6885,0.6885,0.6884,0.6884,0,0,0.6879,0.6881,0.6885,0.6887,0.689,0.6898,0.691,0.6917,0.6922,0.6926,0.6936,0.6948,0.694,0.6943,0.6939,0.6947,0.6969,0.6938,0.6938,0.6943,0.6991,0.6997,0.7002,0.6964,0.6964,0.6965,0.6991,0,0.6909,0.693,0.6924,0.6945,0.6954,0.6943,0.6953,0.6955,0.6954,0.6961,0.6959,0.6967,0.6956,0.6958,0.6966,0.6965,0.6978,0.6963,0.6972,0.6972,0.6971,0.7006,0.7013,0.7037,0.6994,0.6995,0.6995,0,0.6946,0.6951,0.6973,0.6972,0.6976,0.6986,0.699,0.6998,0.7,0.6998,0.7001,0.6994,0.7005,0.6992,0.7006,0.6996,0.6999,0.6999,0.6999,0.7,0.6985,0.7007,0.7045,0.7049,0.7,0.7,0.6999,0,0.6975,0.6987,0.7001,0.7003,0.7003,0.701,0.701,0.7011,0.7015,0.702,0.7022,0.7027,0.703,0.7035,0.7029,0.702,0.7044,0.703,0.7042,0.7043,0.7048,0.7048,0.7087,0.7051,0.7051,0.7051,0.7051,0,0.7008,0.7021,0.7013,0.7022,0.7036,0.7029,0.7043,0.7042,0.7043,0.7051,0.7041,0.7049,0.7041,0.7048,0.7043,0.7056,0.7057,0.7055,0.7054,0.7056,0.7056,0.7058,0.7057,0.7052,0.7051,0.7051,0.7051,0,0.7043,0.7038,0.7052,0.7051,0.7051,0.7061,0.7059,0.7067,0.7064,0.7074,0.7076,0.7071,0.7078,0.7073,0.708,0.7077,0.7093,0.7089,0.7092,0.7091,0.7103,0.7102,0.7145,0.7149,0.711,0.7111,0.7111,0,0.7064,0.7074,0.7073,0.7077,0.7078,0.7086,0.7089,0.7082,0.7086,0.7088,0.7095,0.7101,0.7105,0.7117,0.7114,0.7119,0.7115,0.713,0.7116,0.7117,0.7115,0.7114,0.7115,0.7132,0.7133,0.7133,0.7134,0,0.7103,0.7099,0.7105,0.7109,0.7114,0.7117,0.712,0.7123,0.7116,0.7121,0.7128,0.7131,0.7137,0.7143,0.7147,0.7147,0.7139,0.7138,0.7141,0.7143,0.7144,0.7143,0.7099,0.7137,0.7137,0.7136,0.7136,0.7136,0.7131,0.7139,0.7139,0.7145,0.7146,0.7148,0.7154,0.7152,0.7157,0.7162,0.7157,0.7165,0.7165,0.7169,0.7169,0.7175,0.7169,0.7173,0.7175,0.7176,0.7177,0.7143,0.7176,0.7176,0.7175,0.7175,0.7175,0,0.7169,0.7168,0.7173,0.7176,0.7181,0.7172,0.7174,0.7178,0.7185,0.7186,0.719,0.7197,0.7202,0.7199,0.7203,0.7208,0.7205,0.721,0.7209,0.7209,0.7183,0.7179,0.7213,0.7213,0.7213,0.7212,0.7212,0.7212,0.7189,0.7201,0.7197,0.7209,0.7208,0.7215,0.7217,0.7218,0.7219,0.7227,0.7231,0.7228,0.7227,0.7231,0.7235,0.7234,0.7236,0.7242,0.724,0.7215,0.7211,0.7208,0.7205,0.7243,0.7243,0.7266,0.7266,0.7266]}]]